When you browse on this site, cookies collect data to enhance your experience and personalize the content and advertising you see.
Visit our Privacy Policy to learn more. By continuing to use the site, you agree to this use of cookies and data.
  • In Hungary
  • List of Countries
  • For 7 days
  • Water Temperature
  • Weather Map
  • News
  • Weather Widgets
  • user-avatar
    Login

    Hourly Weather Klubkovo

    Today, 23 October, Wednesday

    Time Temperature Precipitation Wind Pressure Humidity
    00:00 +11°C° 0 mm 1 mps 753 mmHg 92%
    01:00 +11°C° 0 mm 1 mps 753 mmHg 92%
    02:00 +11°C° 0 mm 1 mps 753 mmHg 92%
    03:00 +11°C° 0 mm 1 mps 754 mmHg 94%
    04:00 +11°C° 0 mm 1 mps 754 mmHg 94%
    05:00 +10°C° 0 mm 0 mps 754 mmHg 94%
    06:00 +9°C° 0 mm 0 mps 754 mmHg 94%
    07:00 +11°C° 0 mm 1 mps 754 mmHg 91%
    08:00 +12°C° 0 mm 1 mps 754 mmHg 88%
    09:00 +13°C° 0 mm 1 mps 754 mmHg 84%
    10:00 +14°C° 0 mm 2 mps 754 mmHg 78%
    11:00 +15°C° 0 mm 2 mps 753 mmHg 71%
    12:00 +16°C° 0 mm 3 mps 753 mmHg 64%
    13:00 +16°C° 0 mm 3 mps 753 mmHg 63%
    14:00 +15°C° 0 mm 4 mps 753 mmHg 62%
    15:00 +17°C° 0 mm 4 mps 752 mmHg 61%
    16:00 +15°C° 0.1 mm 4 mps 752 mmHg 66%
    17:00 +14°C° 0.1 mm 3 mps 752 mmHg 70%
    18:00 +14°C° 0.1 mm 3 mps 752 mmHg 75%
    19:00 +14°C° 0.4 mm 4 mps 752 mmHg 78%
    20:00 +14°C° 0.4 mm 4 mps 752 mmHg 80%
    21:00 +13°C° 0.4 mm 4 mps 752 mmHg 83%
    22:00 +13°C° 0.3 mm 4 mps 752 mmHg 84%
    23:00 +13°C° 0.3 mm 4 mps 751 mmHg 86%

    Tomorrow, 24 October, Thursday

    Time Temperature Precipitation Wind Pressure Humidity
    00:00 +13°C° 0.3 mm 4 mps 751 mmHg 87%
    01:00 +13°C° 0.4 mm 3 mps 752 mmHg 88%
    02:00 +13°C° 0.4 mm 2 mps 752 mmHg 89%
    03:00 +13°C° 0.4 mm 2 mps 752 mmHg 90%
    04:00 +13°C° 0 mm 2 mps 752 mmHg 90%
    05:00 +12°C° 0 mm 2 mps 752 mmHg 90%
    06:00 +12°C° 0 mm 2 mps 752 mmHg 90%
    07:00 +13°C° 0 mm 1 mps 752 mmHg 86%
    08:00 +13°C° 0 mm 1 mps 752 mmHg 83%
    09:00 +14°C° 0 mm 1 mps 752 mmHg 80%
    10:00 +15°C° 0 mm 1 mps 752 mmHg 77%
    11:00 +15°C° 0 mm 1 mps 752 mmHg 74%
    12:00 +16°C° 0 mm 1 mps 752 mmHg 71%
    13:00 +16°C° 0 mm 1 mps 752 mmHg 71%
    14:00 +16°C° 0 mm 1 mps 752 mmHg 72%
    15:00 +16°C° 0 mm 1 mps 752 mmHg 72%
    16:00 +16°C° 0 mm 1 mps 752 mmHg 74%
    17:00 +15°C° 0 mm 1 mps 752 mmHg 77%
    18:00 +14°C° 0 mm 1 mps 752 mmHg 79%
    19:00 +14°C° 0 mm 1 mps 753 mmHg 79%
    20:00 +14°C° 0 mm 1 mps 753 mmHg 79%
    21:00 +14°C° 0 mm 1 mps 753 mmHg 79%
    22:00 +13°C° 0 mm 1 mps 753 mmHg 81%
    23:00 +13°C° 0 mm 2 mps 753 mmHg 83%

    Day after tomorrow, 25 October, Friday

    Time Temperature Precipitation Wind Pressure Humidity
    00:00 +13°C° 0 mm 2 mps 753 mmHg 85%
    01:00 +12°C° 0 mm 2 mps 753 mmHg 87%
    02:00 +12°C° 0 mm 2 mps 753 mmHg 89%
    03:00 +12°C° 0 mm 2 mps 753 mmHg 91%
    04:00 +12°C° 0 mm 1 mps 753 mmHg 90%
    05:00 +11°C° 0 mm 1 mps 753 mmHg 90%
    06:00 +11°C° 0 mm 1 mps 753 mmHg 90%
    07:00 +12°C° 0 mm 1 mps 753 mmHg 84%
    08:00 +13°C° 0 mm 1 mps 753 mmHg 79%
    09:00 +14°C° 0 mm 1 mps 754 mmHg 74%
    10:00 +15°C° 0 mm 1 mps 754 mmHg 69%
    11:00 +16°C° 0 mm 2 mps 754 mmHg 64%
    12:00 +17°C° 0 mm 2 mps 753 mmHg 58%
    13:00 +17°C° 0 mm 2 mps 753 mmHg 56%
    14:00 +18°C° 0 mm 3 mps 753 mmHg 55%
    15:00 +18°C° 0 mm 3 mps 753 mmHg 53%
    16:00 +17°C° 0 mm 2 mps 753 mmHg 56%
    17:00 +16°C° 0 mm 2 mps 753 mmHg 59%
    18:00 +15°C° 0 mm 2 mps 753 mmHg 61%
    19:00 +14°C° 0 mm 2 mps 753 mmHg 62%
    20:00 +14°C° 0 mm 2 mps 753 mmHg 62%
    21:00 +14°C° 0 mm 2 mps 754 mmHg 62%
    22:00 +13°C° 0 mm 2 mps 754 mmHg 62%
    23:00 +13°C° 0 mm 2 mps 754 mmHg 62%

    26 October, Saturday

    Time Temperature Precipitation Wind Pressure Humidity
    00:00 +12°C° 0 mm 3 mps 754 mmHg 62%
    01:00 +11°C° 0 mm 3 mps 754 mmHg 65%
    02:00 +11°C° 0 mm 3 mps 754 mmHg 68%
    03:00 +11°C° 0 mm 3 mps 754 mmHg 71%
    04:00 +10°C° 0 mm 3 mps 754 mmHg 70%
    05:00 +10°C° 0 mm 3 mps 754 mmHg 70%
    06:00 +10°C° 0 mm 3 mps 754 mmHg 69%
    07:00 +11°C° 0 mm 3 mps 754 mmHg 64%
    08:00 +12°C° 0 mm 3 mps 754 mmHg 59%
    09:00 +13°C° 0 mm 3 mps 755 mmHg 55%
    10:00 +14°C° 0 mm 3 mps 755 mmHg 52%
    11:00 +15°C° 0 mm 4 mps 755 mmHg 49%
    12:00 +17°C° 0 mm 4 mps 755 mmHg 47%
    13:00 +17°C° 0 mm 4 mps 754 mmHg 46%
    14:00 +16°C° 0 mm 5 mps 754 mmHg 45%
    15:00 +17°C° 0 mm 5 mps 754 mmHg 44%
    16:00 +17°C° 0 mm 4 mps 754 mmHg 48%
    17:00 +14°C° 0 mm 4 mps 754 mmHg 52%
    18:00 +13°C° 0 mm 3 mps 753 mmHg 56%
    19:00 +13°C° 0 mm 4 mps 753 mmHg 57%
    20:00 +12°C° 0 mm 4 mps 753 mmHg 58%
    21:00 +12°C° 0 mm 4 mps 753 mmHg 59%
    22:00 +12°C° 0 mm 4 mps 753 mmHg 59%
    23:00 +12°C° 0 mm 4 mps 753 mmHg 59%

    27 October, Sunday

    Time Temperature Precipitation Wind Pressure Humidity
    00:00 +11°C° 0 mm 4 mps 753 mmHg 59%
    01:00 +11°C° 0 mm 4 mps 753 mmHg 60%
    02:00 +11°C° 0 mm 4 mps 752 mmHg 61%
    03:00 +11°C° 0 mm 4 mps 752 mmHg 61%
    04:00 +10°C° 0 mm 4 mps 752 mmHg 62%
    05:00 +10°C° 0 mm 4 mps 752 mmHg 63%
    06:00 +10°C° 0 mm 4 mps 752 mmHg 64%
    07:00 +10°C° 0 mm 5 mps 752 mmHg 60%
    08:00 +12°C° 0 mm 5 mps 752 mmHg 56%
    09:00 +11°C° 0 mm 6 mps 752 mmHg 52%
    10:00 +14°C° 0 mm 6 mps 751 mmHg 48%
    11:00 +15°C° 0 mm 6 mps 751 mmHg 44%
    12:00 +16°C° 0 mm 6 mps 751 mmHg 40%
    13:00 +16°C° 0 mm 6 mps 750 mmHg 41%
    14:00 +16°C° 0 mm 6 mps 750 mmHg 41%
    15:00 +16°C° 0 mm 6 mps 749 mmHg 41%
    16:00 +16°C° 0 mm 6 mps 749 mmHg 44%
    17:00 +15°C° 0 mm 6 mps 749 mmHg 46%
    18:00 +14°C° 0 mm 6 mps 748 mmHg 49%
    19:00 +14°C° 0 mm 6 mps 748 mmHg 49%
    20:00 +13°C° 0 mm 6 mps 748 mmHg 50%
    21:00 +12°C° 0 mm 7 mps 748 mmHg 50%
    22:00 +13°C° 0 mm 6 mps 748 mmHg 52%
    23:00 +13°C° 0 mm 6 mps 748 mmHg 54%

    28 October, Monday

    Time Temperature Precipitation Wind Pressure Humidity
    00:00 +11°C° 0 mm 6 mps 747 mmHg 56%
    01:00 +11°C° 0 mm 6 mps 747 mmHg 59%
    02:00 +10°C° 0 mm 6 mps 747 mmHg 62%
    03:00 +10°C° 0 mm 5 mps 747 mmHg 64%
    04:00 +9°C° 0 mm 5 mps 747 mmHg 67%
    05:00 +9°C° 0 mm 5 mps 747 mmHg 69%
    06:00 +9°C° 0 mm 5 mps 746 mmHg 72%
    07:00 +10°C° 0 mm 5 mps 747 mmHg 70%
    08:00 +10°C° 0 mm 5 mps 747 mmHg 68%
    09:00 +12°C° 0 mm 5 mps 747 mmHg 67%
    10:00 +13°C° 0 mm 5 mps 747 mmHg 62%
    11:00 +15°C° 0 mm 5 mps 746 mmHg 58%
    12:00 +16°C° 0 mm 5 mps 746 mmHg 53%
    13:00 +16°C° 0 mm 5 mps 746 mmHg 52%
    14:00 +16°C° 0 mm 5 mps 746 mmHg 51%
    15:00 +17°C° 0 mm 5 mps 745 mmHg 50%
    16:00 +16°C° 0 mm 5 mps 745 mmHg 54%
    17:00 +15°C° 0 mm 4 mps 745 mmHg 58%
    18:00 +13°C° 0 mm 4 mps 745 mmHg 62%
    19:00 +13°C° 0 mm 4 mps 745 mmHg 63%
    20:00 +13°C° 0 mm 4 mps 745 mmHg 64%
    21:00 +12°C° 0 mm 4 mps 745 mmHg 65%
    22:00 +12°C° 0 mm 4 mps 745 mmHg 66%
    23:00 +12°C° 0 mm 4 mps 745 mmHg 67%

    29 October, Tuesday

    Time Temperature Precipitation Wind Pressure Humidity
    00:00 +10°C° 0 mm 5 mps 745 mmHg 68%
    01:00 +11°C° 0 mm 4 mps 745 mmHg 70%
    02:00 +11°C° 0 mm 4 mps 745 mmHg 71%
    03:00 +11°C° 0 mm 4 mps 745 mmHg 72%
    04:00 +10°C° 0 mm 4 mps 745 mmHg 73%
    05:00 +10°C° 0 mm 3 mps 745 mmHg 74%
    06:00 +10°C° 0 mm 3 mps 744 mmHg 76%
    07:00 +10°C° 0 mm 3 mps 745 mmHg 73%
    08:00 +11°C° 0 mm 3 mps 745 mmHg 71%
    09:00 +12°C° 0 mm 3 mps 745 mmHg 68%
    10:00 +13°C° 0 mm 3 mps 745 mmHg 65%
    11:00 +15°C° 0 mm 2 mps 745 mmHg 62%
    12:00 +16°C° 0 mm 2 mps 745 mmHg 58%
    13:00 +16°C° 0 mm 2 mps 745 mmHg 58%
    14:00 +16°C° 0 mm 2 mps 745 mmHg 58%
    15:00 +16°C° 0 mm 2 mps 745 mmHg 57%
    16:00 +15°C° 0 mm 2 mps 744 mmHg 61%
    17:00 +14°C° 0 mm 2 mps 744 mmHg 65%
    18:00 +13°C° 0 mm 2 mps 744 mmHg 69%
    19:00 +13°C° 0 mm 2 mps 744 mmHg 70%
    20:00 +12°C° 0 mm 2 mps 744 mmHg 70%
    21:00 +12°C° 0 mm 2 mps 743 mmHg 71%
    22:00 +12°C° 0 mm 2 mps 743 mmHg 71%
    23:00 +11°C° 0 mm 3 mps 743 mmHg 72%
    Show more